Wind_Speed
32 34 34 33 33 34 34 32 31 32 34 34 33 33 32 32 32 32 34 35 35 35 34 34 35 36 37 38 38 39 40 39 39 38 38 38 38 38 38 38 38 38 37 38 38 39 39 40 40 40 40 40 40 39 39 38 38 38 37 36 36 37 37 37 36 35 34 33 32 32 32 32 33 33 34 35 35 35 34 33 34 34 34 35 35 36
34 34 32 31 31 32 34 32 32 32 34 35 35 33 33 33 34 34 34 34 33 32 33 35 36 37 39 40 40 40 39 39 38 38 38 37 37 38 38 37 37 37 37 38 38 39 39 39 39 38 38 37 37 36 36 36 36 36 36 35 35 36 37 37 36 36 35 35 34 34 34 35 35 35 36 37 37 37 36 35 35 36 36 36 36 36
34 34 32 31 30 31 33 34 34 34 34 35 35 34 34 35 36 35 34 33 33 34 35 37 37 38 39 39 40 39 38 37 37 37 37 37 37 38 38 37 37 37 38 38 38 38 38 37 37 36 35 35 34 34 34 35 35 34 34 34 35 35 36 36 36 36 36 36 36 36 37 37 38 38 38 39 39 39 38 38 37 37 37 37 37 38
32 33 34 33 32 32 33 35 36 36 35 35 35 35 35 35 35 36 36 36 36 37 38 38 37 37 37 38 38 37 37 36 37 37 37 37 38 38 37 37 37 37 38 38 37 37 37 36 35 34 34 34 33 34 34 34 34 33 34 34 34 34 35 36 36 36 36 37 37 38 38 39 39 39 39 40 41 41 40 39 38 38 38 38 38 39
32 32 33 34 34 34 35 35 36 36 36 35 35 35 35 35 35 37 38 38 38 37 37 36 36 36 36 37 37 37 37 37 37 37 37 37 37 37 37 37 37 37 37 37 37 36 36 35 34 34 34 33 34 34 34 33 33 33 34 34 35 36 37 37 38 38 38 39 39 40 40 40 40 40 40 41 41 41 41 40 39 39 39 39 39 40
32 32 33 34 35 36 36 36 36 35 35 35 34 34 34 35 36 38 38 37 36 36 36 36 36 36 36 37 37 38 38 38 37 37 37 37 37 36 36 36 36 36 36 36 36 35 35 35 34 34 35 35 34 33 32 32 33 34 35 37 38 39 40 40 40 41 41 41 41 41 41 41 41 41 41 41 41 41 41 40 40 39 39 40 40 40
34 33 33 34 36 37 36 36 35 34 34 33 33 33 34 36 37 37 37 36 36 35 36 37 37 37 37 37 38 38 38 39 38 38 37 36 35 35 35 35 35 36 36 36 35 35 35 34 35 35 36 35 33 31 31 33 35 37 39 40 41 41 41 41 41 41 41 41 41 41 41 41 41 41 41 40 40 40 40 40 40 40 40 41 41 41
35 35 35 35 36 37 36 34 33 31 30 31 33 36 38 38 37 37 37 37 36 36 37 37 37 37 37 37 38 38 38 38 37 36 35 34 34 34 34 35 35 35 35 35 35 34 34 34 35 35 34 32 32 32 34 37 39 41 42 42 42 41 41 40 40 40 40 39 39 39 39 39 39 39 39 39 39 39 40 40 40 40 41 41 42 41
35 36 37 36 36 36 34 32 29 28 29 32 35 37 39 38 38 39 39 37 36 36 36 37 38 38 38 37 36 36 35 34 34 34 34 34 34 35 35 35 35 35 35 34 34 33 33 33 33 32 32 33 34 37 40 42 43 43 43 42 41 40 39 38 38 37 37 37 37 37 37 37 37 37 38 38 38 38 39 39 39 40 41 41 41 40
35 36 37 37 34 31 29 28 29 31 34 35 36 36 35 35 36 38 38 38 37 37 36 36 36 36 37 35 34 33 32 32 33 34 35 35 35 35 35 35 35 34 34 33 32 32 32 32 33 34 36 38 41 42 43 43 42 41 40 39 38 37 37 36 35 35 35 35 35 35 35 35 35 36 36 36 37 37 38 38 39 40 40 41 40 38
35 36 36 33 29 26 26 29 33 36 36 35 34 33 32 33 34 35 38 40 40 38 35 34 33 33 33 34 33 33 33 34 36 37 38 37 36 35 34 34 33 33 33 32 32 32 34 36 38 39 41 42 42 41 41 39 39 38 37 37 36 36 35 34 34 34 33 33 33 33 33 33 33 34 34 35 35 36 37 38 39 40 40 41 39 38
36 35 31 26 25 27 29 32 33 34 34 33 33 34 35 35 35 35 37 39 39 37 35 34 33 32 32 33 34 34 35 37 38 38 38 37 35 34 34 34 34 33 33 33 34 35 37 38 39 39 39 39 38 38 37 36 36 35 35 35 34 34 33 33 32 32 32 32 31 31 32 32 33 33 34 35 35 36 37 38 39 39 40 40 39 37
34 29 25 26 28 30 31 32 33 33 33 34 34 35 37 37 37 36 36 36 36 34 33 34 34 34 34 34 34 35 36 37 36 36 35 34 33 33 33 33 33 33 34 35 36 37 37 37 37 38 38 37 37 36 35 35 34 34 33 33 32 32 32 32 32 32 31 31 31 32 32 33 33 33 34 34 35 35 36 37 37 38 38 38 37 36
27 25 27 29 31 31 32 33 34 35 35 35 36 36 37 37 37 35 34 34 33 32 31 33 34 35 36 34 33 33 33 33 33 32 31 30 30 30 31 33 34 34 33 34 35 36 36 37 38 39 38 37 36 36 35 34 34 33 33 32 32 32 33 33 32 32 32 32 32 33 34 34 33 33 32 32 33 33 34 34 34 34 34 34 34 34
25 28 30 32 33 33 34 34 35 36 37 37 37 37 37 36 35 33 32 31 31 32 33 35 36 36 34 33 30 29 30 30 30 30 30 31 31 31 32 34 35 35 34 34 35 36 37 37 38 39 39 37 36 36 35 35 34 34 33 33 34 34 34 34 33 33 32 32 33 33 33 33 33 32 32 33 33 34 34 33 32 32 31 31 31 31
30 31 32 33 34 35 35 35 36 36 37 37 36 36 35 34 32 31 30 30 31 33 35 36 36 36 34 32 30 28 28 29 30 30 32 33 34 33 33 33 34 34 34 33 34 35 36 37 37 37 38 37 37 36 35 34 34 34 34 34 35 35 35 34 33 33 33 34 34 34 33 33 33 33 34 34 35 35 35 34 34 33 32 31 31 31
32 32 33 34 35 36 36 36 36 35 36 36 35 34 33 32 31 30 30 32 33 34 35 35 34 34 34 34 31 28 27 28 30 32 33 35 35 34 32 32 32 33 34 34 34 35 36 37 37 37 37 37 36 35 34 34 34 35 35 35 35 35 34 33 33 34 35 36 36 35 34 34 33 34 35 35 36 36 36 35 35 35 34 34 33 33
33 34 34 35 36 36 36 35 34 34 34 34 34 34 33 31 30 30 31 34 35 35 35 33 32 31 31 33 33 31 29 29 31 34 35 36 36 35 33 31 31 32 34 35 36 36 36 37 36 36 36 36 35 34 34 34 35 35 34 34 34 34 34 34 34 35 36 36 36 35 34 34 33 33 34 34 35 35 36 36 36 36 35 35 35 35
35 35 35 35 35 35 35 34 33 33 33 35 36 35 33 31 31 33 34 35 35 35 34 32 32 32 31 32 34 34 32 31 32 35 36 38 37 35 32 30 30 32 34 35 35 35 36 37 38 38 37 37 36 35 35 34 34 33 33 34 34 34 34 34 34 35 35 36 35 35 34 34 33 33 33 33 34 34 35 35 35 35 35 35 35 36
36 35 34 34 34 34 34 33 33 33 34 36 35 33 33 33 35 36 36 35 34 33 33 32 33 33 33 34 35 36 35 34 36 37 37 37 35 33 31 30 31 34 35 35 36 36 36 37 38 38 38 36 35 34 33 33 33 33 33 34 34 34 34 34 34 34 35 35 35 34 34 33 33 33 33 33 33 33 34 34 35 35 35 35 36 36
35 35 35 33 33 34 36 35 35 36 35 35 34 34 35 36 37 36 35 35 34 34 34 33 33 34 34 35 36 37 37 36 36 38 38 35 33 32 30 31 32 33 34 35 35 35 36 37 37 37 36 34 33 32 32 33 33 34 34 34 35 34 34 34 34 34 34 34 34 34 34 33 33 33 33 33 33 33 34 34 34 34 35 35 35 36
35 35 34 34 34 35 37 37 37 36 35 34 35 36 37 37 36 36 35 35 35 35 34 35 36 36 38 38 39 38 36 35 35 35 34 33 33 33 32 31 32 33 34 36 37 37 36 35 34 34 33 33 32 33 33 34 34 35 35 35 34 34 34 34 34 34 34 34 34 34 34 33 33 33 33 33 33 33 33 34 34 34 34 35 35 36
33 34 34 34 34 35 35 36 35 35 35 35 35 34 35 36 36 37 38 38 37 36 36 38 39 40 39 38 37 36 34 32 31 30 30 31 34 35 33 32 32 33 34 35 35 34 32 32 32 32 33 33 34 34 34 34 34 34 34 33 33 33 34 34 34 34 34 33 33 33 33 33 32 32 32 32 32 32 33 33 33 33 34 34 35 37
30 31 32 33 33 33 33 34 34 35 36 35 34 33 33 33 34 35 36 36 37 38 39 39 39 39 37 35 34 33 31 28 27 27 29 30 32 34 33 31 31 32 33 33 33 32 32 32 33 34 34 35 35 35 35 35 34 34 33 33 33 33 34 34 34 34 33 33 33 33 33 32 32 32 32 32 32 33 33 33 34 34 34 35 36 38
28 29 30 31 32 33 34 34 34 34 34 33 32 32 32 32 32 33 34 35 36 37 37 37 37 36 34 33 31 30 28 26 26 27 29 31 33 34 33 31 30 31 33 34 33 33 33 34 34 35 35 35 35 35 35 34 34 33 33 33 33 33 33 33 33 33 34 34 34 34 34 33 33 33 34 34 34 34 34 34 35 35 35 36 37 38
27 29 30 32 33 34 34 33 32 31 31 30 30 30 30 31 31 32 33 34 34 35 35 35 34 33 32 31 30 29 28 27 27 28 29 30 32 33 33 31 30 31 33 34 34 33 33 34 35 35 35 35 35 35 35 34 33 32 32 32 32 32 33 33 33 34 34 35 35 35 35 35 35 35 35 35 35 35 35 35 35 35 36 36 37 37
29 31 33 34 33 33 31 31 30 30 29 28 28 28 28 29 30 31 32 33 33 34 34 33 32 32 32 30 29 29 29 29 29 29 28 29 31 32 32 31 30 31 33 34 34 34 34 34 35 35 35 35 35 35 34 33 32 31 31 31 32 32 33 34 34 34 35 35 35 35 35 35 35 35 35 35 35 35 35 35 35 34 34 35 36 37
32 33 33 33 31 30 30 29 29 29 29 28 27 27 26 27 28 30 32 33 34 33 32 32 32 31 31 31 31 31 32 31 29 27 26 27 28 29 31 31 31 32 33 34 35 35 34 34 34 34 33 33 33 32 32 31 31 31 31 32 33 34 34 34 34 35 35 35 35 35 35 35 35 35 35 35 34 34 34 34 33 33 33 34 36 37
34 33 32 31 30 30 30 30 30 30 29 28 27 26 25 26 27 30 32 33 33 32 31 31 31 31 32 33 33 33 32 29 26 25 25 26 28 30 32 31 31 32 33 34 35 35 33 30 29 29 30 30 30 30 31 31 32 33 34 35 35 35 35 34 34 34 34 34 34 34 34 35 35 35 35 35 35 35 34 34 33 33 34 35 36 37
34 32 31 31 31 31 31 31 31 30 30 28 27 27 26 27 28 30 31 32 31 31 30 31 31 32 33 33 33 32 30 27 25 25 27 28 30 32 33 32 31 32 32 33 33 32 32 30 28 27 27 28 29 30 31 32 33 34 36 36 36 36 35 34 34 33 34 34 34 34 35 35 35 35 35 36 36 36 36 35 35 35 35 36 37 38
32 32 32 32 32 32 32 31 31 30 30 29 29 28 28 29 29 30 30 30 30 31 31 31 32 33 33 32 30 29 29 29 29 29 30 30 32 33 33 32 32 32 32 31 30 29 30 32 31 29 28 29 31 32 32 32 33 33 34 35 35 35 35 34 34 34 34 35 35 35 34 34 34 34 34 34 35 35 36 36 35 35 36 36 38 39
32 32 32 33 33 32 31 30 30 30 30 30 30 29 29 29 29 29 29 30 30 31 32 32 33 33 33 32 31 30 31 32 33 33 32 32 33 34 33 32 32 32 32 31 31 30 28 32 34 34 33 32 32 32 32 31 31 32 32 33 34 35 35 35 35 35 36 36 35 34 32 31 29 29 29 29 30 31 32 33 33 34 35 36 38 40
32 33 33 33 33 32 30 30 29 29 30 30 30 29 29 29 29 29 30 30 31 31 31 32 33 34 35 34 34 34 34 35 35 34 33 33 34 35 35 34 33 33 34 33 33 32 31 32 35 37 37 35 32 31 31 30 30 30 31 32 34 36 37 38 38 37 36 35 34 32 30 28 27 26 25 25 25 26 27 28 29 31 32 34 37 39
33 33 33 32 31 30 30 30 30 30 30 30 30 30 30 30 30 31 31 31 31 31 31 32 33 33 34 35 36 36 37 37 36 35 34 34 35 36 35 36 35 35 35 35 33 32 32 34 35 35 35 35 34 32 30 30 30 30 31 33 35 37 38 39 38 37 36 35 33 32 30 28 26 25 24 23 23 23 23 24 25 27 29 31 33 35
33 33 32 31 31 31 31 30 30 30 30 30 30 31 31 31 31 31 31 31 31 31 31 32 32 32 33 34 36 37 37 37 37 35 35 35 37 37 36 36 35 35 35 35 35 34 33 34 34 34 34 34 34 33 31 30 30 31 33 35 37 37 38 38 38 37 36 34 33 32 30 29 27 25 24 23 22 22 22 22 23 24 25 27 30 32
32 32 32 31 31 31 30 30 30 31 31 31 31 31 32 32 32 32 32 31 31 32 32 32 32 32 32 33 34 36 37 38 37 35 34 34 36 37 37 36 35 35 35 36 36 35 34 34 35 35 34 33 33 33 33 32 33 34 36 37 38 38 38 37 36 36 35 34 34 33 31 30 28 27 25 23 22 21 21 22 22 23 24 25 27 29
31 31 30 30 30 30 30 31 31 31 31 32 32 33 33 33 32 32 32 32 33 32 32 32 32 32 32 33 33 35 36 37 36 35 33 32 33 34 36 36 35 35 36 36 37 36 36 35 34 34 33 31 31 31 33 35 37 38 38 38 38 38 38 37 36 35 35 35 34 33 32 31 30 29 27 25 24 23 22 21 21 21 22 23 25 27
31 31 30 30 30 30 30 31 31 31 31 32 32 33 33 33 33 33 33 33 34 33 33 33 33 33 33 33 34 35 36 36 35 33 31 30 30 31 34 35 35 35 35 36 36 37 37 35 33 32 31 31 32 33 34 37 38 38 38 39 39 38 37 36 36 35 35 35 34 33 32 32 31 30 29 28 26 25 24 22 20 19 20 20 22 24
30 30 30 30 30 30 30 31 31 32 32 33 33 33 33 33 33 33 34 34 34 34 34 33 34 34 34 34 35 35 35 34 33 32 30 29 28 29 30 33 34 34 33 33 34 35 35 34 33 32 31 32 33 35 37 38 38 39 40 40 39 38 37 36 36 35 35 34 34 34 33 31 30 30 29 28 27 26 25 23 21 19 18 18 19 20
30 30 30 30 30 31 31 31 32 32 33 33 33 33 32 33 33 34 34 34 33 33 33 34 34 34 35 35 35 35 34 33 31 30 30 29 28 28 28 30 31 31 31 31 32 32 32 32 32 32 33 34 35 37 37 38 38 38 39 39 39 38 38 37 36 35 34 34 34 34 33 31 29 28 27 26 25 25 24 22 20 18 16 16 17 18
30 29 30 31 31 31 31 31 32 32 32 33 33 33 32 33 33 34 34 34 34 34 34 34 34 34 35 36 35 35 33 32 31 31 30 30 28 27 26 27 27 28 29 30 30 30 30 31 31 32 34 35 35 36 37 37 37 36 36 37 38 39 39 38 36 35 34 34 33 32 31 29 28 27 25 24 22 21 19 18 17 15 14 14 15 17
29 30 31 31 31 31 32 32 33 32 32 32 32 31 31 32 33 33 33 34 34 34 35 34 34 35 37 38 37 35 33 32 31 31 31 30 28 27 26 25 26 27 28 28 29 29 29 30 31 32 32 33 34 35 36 36 36 35 35 35 37 39 39 37 35 33 34 33 31 29 28 27 26 24 23 22 20 17 15 14 13 12 12 13 14 16
29 29 30 31 31 31 32 33 33 33 32 32 32 31 32 32 33 33 33 33 33 33 34 34 35 36 38 38 38 36 34 33 32 31 31 30 28 27 26 26 26 26 26 27 28 29 29 29 29 30 30 30 31 33 35 35 35 34 34 34 35 36 37 37 35 33 31 30 28 27 26 25 24 22 21 19 17 16 15 14 12 10 9 10 12 14
29 30 31 31 31 32 32 32 32 32 32 32 32 32 32 33 33 33 33 33 33 34 34 35 36 37 37 37 36 35 35 34 33 33 31 30 28 27 27 27 26 25 24 25 26 28 28 28 27 27 26 26 27 29 31 32 33 33 33 33 33 34 35 35 35 34 32 29 27 25 24 24 23 21 19 18 17 17 16 16 14 11 8 7 9 12
30 31 30 31 31 32 33 33 32 32 32 32 32 33 33 33 33 33 33 33 34 35 35 36 36 36 35 35 34 35 35 36 35 34 33 31 29 28 27 27 26 25 24 24 24 25 25 25 25 24 23 23 25 27 28 30 31 32 33 33 34 34 35 34 34 33 32 30 27 25 24 23 22 22 21 19 18 18 18 18 17 14 10 6 5 9
30 30 31 31 32 32 32 32 32 32 32 32 33 33 33 33 33 33 33 34 34 35 36 36 35 34 34 33 34 35 36 37 36 35 34 32 31 29 28 27 26 25 25 25 23 22 21 21 21 22 22 23 24 25 26 28 30 32 33 34 34 35 35 34 33 32 31 29 27 25 23 23 23 23 23 22 20 20 20 20 19 17 13 8 3 4
31 31 31 31 32 32 33 33 32 32 32 33 33 34 34 34 34 34 34 34 35 35 35 35 35 34 33 34 34 35 35 35 36 36 35 34 32 30 29 27 26 25 25 25 23 21 18 17 17 18 20 21 23 25 27 28 30 31 33 34 35 35 35 34 33 30 29 27 26 25 24 24 24 25 24 23 22 21 21 21 20 18 15 10 5 1
30 30 31 31 32 32 33 33 33 32 32 33 34 34 34 34 34 35 35 35 35 35 35 35 35 34 34 33 34 34 33 33 34 35 34 34 33 31 30 28 27 26 25 24 22 19 16 14 13 15 16 18 21 24 27 29 30 31 33 34 35 35 35 35 32 30 27 26 25 24 24 25 26 26 25 24 24 23 22 22 21 19 15 11 6 1
31 31 31 31 32 33 33 33 33 33 33 34 35 35 35 35 35 34 34 34 34 34 34 34 35 34 34 33 34 34 32 33 33 34 33 33 32 31 30 30 29 28 26 23 21 18 15 12 10 10 13 16 20 24 27 30 31 32 33 34 35 36 36 35 33 30 28 26 24 23 23 24 25 25 25 26 26 25 24 23 22 21 18 13 7 2
30 31 31 31 31 32 33 33 33 33 34 35 35 35 36 36 36 35 34 34 34 34 34 34 34 33 33 33 33 34 33 34 34 33 33 32 31 31 30 30 30 29 28 26 24 21 18 15 12 10 12 16 20 23 26 29 31 33 34 35 36 36 36 36 34 31 29 27 24 23 23 23 23 24 25 26 27 26 25 24 24 23 21 17 12 5
30 31 31 32 32 32 33 33 33 33 34 34 35 36 36 36 36 36 35 34 34 34 35 35 34 32 31 32 32 33 33 33 33 33 32 31 30 30 30 29 29 30 30 30 29 27 26 24 21 18 16 17 19 22 24 27 30 32 34 36 36 36 37 36 34 32 29 27 25 24 23 23 24 25 26 27 27 27 27 26 26 25 24 22 17 11
Wind_Direction
299 301 302 304 304 304 303 303 303 303 302 303 303 302 302 301 300 299 299 299 300 300 299 298 297 296 295 295 296 296 297 297 296 295 295 294 294 294 294 293 292 291 290 290 289 289 289 288 288 288 288 287 287 285 283 282 281 280 280 280 279 277 277 277 277 277 276 275 275 275 275 275 276 276 275 274 273 273 273 272 272 272 272 271 271 270
301 302 302 303 303 303 303 303 303 302 301 302 302 302 302 301 300 300 301 302 301 300 299 299 298 297 297 297 297 297 297 296 296 295 295 294 294 294 293 292 291 291 290 290 290 290 289 289 289 288 287 286 286 285 283 282 281 280 279 279 278 277 276 276 277 277 277 276 276 276 277 277 277 277 277 277 276 275 275 274 273 273 272 272 272 271
302 303 302 303 303 302 302 302 302 302 301 301 301 301 301 300 300 301 303 304 303 302 301 300 299 298 297 298 298 298 297 296 296 295 295 294 294 294 293 292 291 291 291 291 290 290 290 289 288 287 286 286 286 285 284 283 282 281 281 280 279 277 276 276 276 277 277 277 277 278 278 278 277 277 277 277 276 275 275 274 274 273 273 272 272 271
301 302 303 304 303 301 300 301 302 302 302 301 301 300 300 299 301 303 306 306 305 304 303 302 300 299 298 298 298 298 297 296 295 295 294 294 293 293 292 291 291 291 291 291 291 291 290 289 287 286 286 285 285 285 284 284 284 286 287 286 283 280 278 277 278 278 279 279 279 279 279 279 278 277 277 276 275 274 274 274 274 273 273 272 271 270
300 301 302 303 302 301 300 301 302 302 302 301 300 300 300 301 303 306 308 308 307 305 304 302 301 299 298 298 297 297 296 296 295 294 294 293 292 292 291 290 291 291 292 292 292 291 290 288 287 286 285 284 283 283 283 284 287 289 290 289 287 285 283 282 282 282 281 281 281 280 280 279 278 277 276 275 274 273 272 273 273 272 272 271 270 269
300 300 300 300 300 300 301 301 301 301 301 299 299 299 301 304 307 308 309 308 306 305 304 302 301 300 298 298 297 296 296 295 294 293 293 292 291 290 290 290 291 292 292 292 292 291 290 288 287 286 284 282 281 281 282 285 287 289 289 289 287 286 285 284 284 283 282 282 281 279 279 278 276 275 274 273 272 272 272 272 271 271 270 269 268 266
300 299 298 298 298 299 299 299 299 298 298 299 301 304 307 308 309 309 309 308 306 304 304 302 301 300 298 297 297 296 295 294 294 293 293 292 291 290 290 290 291 292 293 292 291 290 289 288 286 284 282 281 281 283 284 286 287 289 289 288 287 285 284 283 283 283 281 280 279 278 277 276 275 274 273 272 271 271 270 270 269 269 268 267 265 263
299 298 298 298 298 298 297 296 296 297 299 303 307 310 311 310 309 308 308 307 305 304 303 302 301 300 298 297 296 296 295 295 295 295 294 294 293 292 292 292 293 293 292 292 291 289 288 286 284 283 282 283 285 286 286 286 288 288 288 288 286 285 284 283 282 281 280 279 278 277 276 275 274 273 272 271 270 269 268 268 267 266 266 265 263 260
296 297 297 297 297 296 296 296 298 302 306 310 312 313 313 311 309 308 307 305 304 304 303 302 301 300 299 298 297 296 296 295 295 296 295 294 294 293 293 293 294 293 292 291 290 289 287 285 284 285 286 287 287 286 286 287 288 288 287 286 285 284 284 283 282 280 279 278 277 276 275 274 273 272 271 270 269 268 267 266 265 265 264 263 262 260
296 295 296 296 295 294 297 301 305 309 313 314 313 312 311 309 308 308 307 306 305 304 304 302 301 300 300 300 299 298 297 296 296 296 296 295 293 293 294 295 295 295 293 291 289 288 287 287 288 288 288 288 288 287 287 287 287 287 286 285 285 284 283 282 281 280 279 278 277 276 275 274 273 272 271 269 268 267 266 265 264 263 262 261 260 259
296 295 294 294 296 299 304 308 311 313 315 314 312 309 307 306 306 307 306 306 306 305 304 303 301 300 300 301 301 300 299 298 298 298 298 298 297 297 298 299 299 297 295 292 289 287 287 287 288 289 289 289 288 288 288 287 287 286 286 285 284 284 283 282 281 280 280 279 278 277 276 275 274 273 271 270 269 267 266 265 263 262 261 261 260 258
296 294 293 297 303 309 311 312 312 313 313 311 309 307 306 305 305 305 305 304 304 305 304 304 302 301 301 301 301 301 300 300 300 300 301 301 302 302 302 301 300 297 294 292 290 289 289 289 290 290 290 290 289 289 288 288 287 287 286 285 285 284 283 282 282 281 281 280 279 278 278 277 275 273 271 269 268 266 265 263 262 261 261 260 259 258
295 296 301 308 312 313 312 312 311 310 309 308 307 306 306 306 305 304 303 301 301 302 303 304 304 303 302 301 300 300 301 301 301 301 301 301 302 302 301 300 298 295 292 291 290 290 291 292 292 292 292 291 291 290 290 290 290 290 290 289 287 286 285 284 283 282 281 281 280 279 279 277 275 272 270 268 267 265 264 263 262 261 261 260 259 258
300 307 312 314 313 311 310 310 309 308 307 306 305 304 304 304 304 303 300 299 300 301 303 304 304 303 303 301 300 300 301 301 300 300 299 298 298 298 298 296 294 292 291 289 289 290 292 293 293 294 294 294 294 294 295 295 295 294 293 291 289 288 286 285 284 283 282 281 280 280 279 277 275 273 273 273 273 272 271 269 267 265 263 261 259 257
312 316 315 312 310 309 308 308 307 306 305 305 304 304 303 303 302 301 300 299 301 304 306 306 305 303 302 301 301 301 301 300 299 298 297 297 296 296 296 294 292 291 290 289 290 292 293 294 294 295 296 297 297 298 298 297 295 294 292 290 289 288 287 286 284 282 281 280 280 279 278 277 277 276 278 279 279 279 279 277 274 271 268 265 262 260
316 316 313 310 308 307 307 306 306 305 304 304 304 303 302 300 299 299 299 301 305 308 308 307 306 304 303 303 303 303 303 301 300 299 299 298 298 297 297 294 292 292 291 291 292 293 294 295 295 296 297 299 300 299 298 295 292 291 290 289 289 288 287 286 284 282 280 281 281 282 282 281 281 280 279 278 278 278 278 279 278 276 273 269 267 265
314 312 310 308 306 306 306 305 305 304 304 304 303 302 300 297 297 299 301 305 307 308 307 306 304 303 303 304 305 306 305 304 302 301 299 298 299 299 297 294 291 291 293 293 293 293 294 295 296 297 298 299 299 298 295 292 291 290 289 289 288 288 287 285 283 282 282 283 284 285 285 285 284 282 280 278 276 276 276 276 276 276 274 272 270 268
310 308 307 305 304 304 305 305 305 305 304 304 303 300 298 297 298 302 305 306 306 305 304 301 300 299 299 302 304 305 306 305 303 301 300 298 298 298 297 294 293 293 294 294 294 293 294 296 296 296 297 297 296 295 293 292 291 290 289 289 288 288 287 286 284 284 284 285 286 286 286 285 284 282 280 277 275 274 274 274 274 273 272 271 270 269
307 305 304 303 303 303 304 304 304 304 304 303 301 299 298 300 303 305 306 305 304 302 300 298 297 297 297 298 300 303 305 305 303 301 299 297 296 296 297 296 295 295 294 294 294 294 295 297 298 299 298 298 296 295 293 292 292 291 290 290 289 289 288 287 286 286 286 287 287 287 286 285 283 281 279 277 276 275 274 273 273 272 271 270 270 269
304 303 302 302 302 302 302 301 302 303 303 303 302 301 302 304 306 306 305 303 302 301 299 298 297 297 298 298 300 302 304 305 303 301 298 296 295 296 297 298 297 297 296 295 295 296 297 297 298 299 299 298 297 295 294 293 292 292 290 290 289 289 289 288 288 287 287 287 287 286 285 284 282 280 279 277 276 274 274 273 272 271 271 270 269 269
302 301 301 302 302 300 299 300 302 304 306 306 306 305 306 306 306 305 304 303 302 302 301 299 298 298 298 298 299 301 303 304 302 299 297 296 295 296 298 300 299 296 295 295 296 297 297 298 299 299 298 297 296 295 293 292 292 291 290 290 290 290 290 289 289 288 287 287 286 285 284 283 281 280 278 276 275 273 272 271 271 271 270 270 269 268
300 300 302 304 302 300 300 302 305 307 308 308 307 306 306 305 304 304 304 304 304 303 301 299 298 298 298 298 299 301 304 304 301 299 297 296 296 297 300 301 299 296 295 295 297 299 299 299 298 297 296 294 293 292 291 291 291 292 292 291 291 291 290 290 289 288 287 287 286 285 284 282 281 279 277 276 275 273 272 271 270 270 270 269 269 268
301 301 304 305 305 304 304 305 307 308 307 306 305 304 303 303 303 303 304 304 303 302 300 300 299 300 300 300 301 302 304 304 302 300 298 296 296 298 300 301 300 297 295 296 298 300 299 296 295 293 293 293 293 293 293 293 294 294 294 294 293 292 290 290 289 288 287 286 285 284 283 282 281 279 278 276 275 273 272 271 271 270 270 269 269 268
302 303 304 305 305 305 305 305 305 304 304 304 303 302 301 301 301 301 302 302 302 302 302 302 302 301 300 300 301 302 302 302 302 300 297 294 294 297 300 301 300 298 297 297 298 298 297 295 295 294 294 294 295 295 295 296 296 295 295 294 293 291 290 289 289 288 288 286 285 284 283 282 281 279 278 276 275 274 273 272 271 271 270 269 268 267
304 304 304 303 303 302 302 301 301 302 303 303 303 302 302 302 302 301 301 302 303 304 304 303 302 300 301 302 302 301 302 302 302 300 298 296 296 297 300 301 299 298 297 299 299 299 298 297 296 296 295 295 295 295 296 297 297 296 294 293 292 291 290 290 289 289 288 287 286 285 284 283 281 280 278 276 275 274 273 273 271 270 270 269 269 268
304 303 302 302 301 301 301 302 302 303 304 304 304 304 305 305 304 304 304 304 305 305 305 303 301 300 301 302 302 302 303 304 304 302 300 298 296 297 300 301 300 299 298 300 301 301 299 298 297 296 295 295 296 297 298 299 300 299 297 294 293 292 291 291 290 289 288 288 287 286 285 283 281 280 278 277 275 274 273 272 272 271 270 270 270 270
306 305 304 304 305 306 307 307 307 307 307 307 307 307 307 307 306 305 304 305 306 307 305 303 301 301 303 303 303 303 304 306 306 304 302 299 296 296 299 302 303 301 301 301 301 301 300 298 297 297 296 297 299 301 302 303 302 300 298 295 294 293 292 291 290 289 288 287 286 285 284 283 281 280 279 277 276 275 274 273 272 271 271 270 270 270
309 308 309 310 312 313 314 314 313 313 313 312 312 311 310 309 306 304 304 306 308 308 305 303 302 302 304 304 304 304 305 305 306 306 306 302 298 296 300 303 304 303 303 302 302 302 300 298 297 298 299 300 302 303 303 303 302 299 296 295 294 293 293 292 291 290 288 287 287 286 285 283 282 281 279 278 276 275 273 273 272 271 269 268 269 269
312 313 314 317 319 320 320 319 319 318 318 317 316 315 313 310 307 305 306 309 310 308 305 303 302 302 303 304 304 305 305 305 307 309 308 305 300 298 302 304 305 305 305 304 304 304 301 299 298 300 301 301 301 301 300 299 299 297 296 297 296 296 296 295 294 292 290 290 289 288 286 284 283 281 279 277 275 273 271 270 269 268 267 266 265 266
317 319 321 322 323 324 323 322 322 321 321 319 318 316 315 313 310 310 311 312 311 307 304 303 303 303 303 305 305 306 306 306 308 310 310 306 302 301 304 304 304 305 307 307 306 305 304 303 302 301 301 301 300 299 298 298 298 298 299 300 301 301 300 299 298 296 294 293 291 289 286 284 282 280 277 275 273 271 269 267 266 265 264 263 263 262
322 323 322 323 324 325 324 323 322 321 320 319 319 318 317 315 314 313 312 311 309 306 304 303 303 303 304 304 304 304 304 305 308 310 310 306 302 301 304 304 304 305 307 307 306 305 306 306 306 305 304 302 301 300 300 300 301 301 302 302 302 302 302 301 300 298 296 294 293 291 289 286 284 281 278 275 272 270 267 265 263 262 262 261 261 260
323 322 322 323 324 325 323 322 321 320 319 319 319 319 319 318 316 314 312 311 310 308 305 304 304 304 303 302 300 299 300 302 307 311 311 306 303 302 304 304 304 305 306 305 302 300 301 303 305 306 305 304 303 302 302 302 302 303 303 302 301 301 302 302 300 299 298 298 298 297 296 294 291 287 284 279 275 271 267 264 262 260 260 259 260 260
323 323 324 325 325 324 322 321 320 319 319 319 320 320 320 319 317 316 315 314 312 310 307 305 304 304 303 302 300 298 299 302 307 312 312 307 303 303 304 305 305 305 306 305 302 299 297 298 301 304 305 305 304 303 304 304 304 304 304 303 302 302 303 304 304 303 303 304 305 306 305 303 300 296 292 287 281 275 270 266 262 260 258 258 259 259
325 326 326 325 324 323 322 321 321 321 320 321 321 321 321 320 319 318 317 316 315 313 310 307 305 304 303 302 301 301 302 305 310 314 314 309 305 304 305 305 305 305 305 304 303 301 298 298 299 301 304 305 305 305 305 306 306 306 304 303 302 303 305 307 309 309 311 311 311 311 311 310 307 303 298 292 286 280 274 268 263 260 257 256 256 257
326 326 325 325 324 323 323 323 323 323 323 322 322 322 321 321 320 320 320 318 317 316 313 311 308 306 304 302 301 301 303 308 314 318 317 313 309 307 305 304 305 305 305 303 302 302 300 300 300 301 303 304 305 306 306 307 307 306 305 305 305 306 309 311 313 314 315 315 315 315 315 314 312 308 303 297 291 284 278 272 265 260 255 252 252 253
325 325 324 324 324 323 323 324 324 324 324 323 323 323 322 322 322 322 322 321 320 318 317 315 313 311 308 305 303 303 305 312 318 322 321 319 315 311 306 304 305 305 303 302 302 301 301 300 302 303 304 304 305 306 308 308 308 308 308 309 310 312 314 316 318 318 318 317 317 317 317 316 314 311 308 303 297 291 284 277 270 263 256 251 248 248
324 324 324 324 324 324 324 324 324 324 323 324 324 324 324 324 324 323 324 324 323 322 320 319 318 317 315 312 310 309 312 316 321 324 325 324 320 314 308 306 306 305 303 301 301 301 301 301 302 304 305 304 304 305 308 309 310 311 311 313 314 315 318 321 323 322 320 319 318 318 318 317 315 313 310 308 304 298 291 284 276 268 261 255 249 245
325 324 324 325 325 325 324 324 324 324 324 324 324 324 325 325 325 326 325 326 326 325 322 321 320 320 320 319 318 318 320 322 324 327 328 328 324 318 311 308 307 307 306 304 303 303 302 302 303 304 305 305 304 304 306 308 309 311 313 317 318 318 320 324 325 325 323 321 320 320 319 318 316 314 312 310 307 303 298 292 286 278 270 263 254 247
325 324 325 325 326 325 324 324 324 324 324 324 324 325 325 326 327 328 328 327 327 326 325 323 322 322 322 323 323 324 325 326 328 329 330 330 327 322 316 310 308 309 310 310 309 307 305 303 302 302 303 304 304 305 306 308 309 312 315 319 321 322 324 326 326 326 325 324 323 322 322 321 319 317 315 313 311 307 304 301 296 289 281 273 264 254
325 325 325 326 326 325 325 324 324 325 325 326 327 327 327 328 328 329 329 328 327 327 327 326 325 324 324 324 326 327 329 330 331 332 332 331 330 326 320 314 312 312 314 314 312 310 306 303 301 300 301 301 302 303 306 309 312 314 317 317 318 321 326 329 329 329 330 329 327 326 326 326 325 323 320 318 316 313 310 307 303 296 287 279 271 261
326 325 325 326 327 327 326 326 326 327 327 328 328 328 328 328 328 328 328 328 328 328 329 329 328 327 327 328 329 331 332 333 333 333 333 333 332 329 324 320 317 317 317 315 313 310 306 304 302 301 301 301 302 303 306 309 314 317 318 316 317 322 329 333 334 335 334 333 333 332 332 332 331 330 328 326 323 321 318 314 308 300 289 277 267 260
326 326 326 327 327 327 327 328 329 330 330 329 328 328 328 329 329 328 327 327 328 329 330 330 328 327 328 330 332 334 334 334 334 335 335 334 333 331 327 324 321 319 318 316 314 311 310 308 306 304 304 304 304 305 307 312 318 322 322 321 323 327 332 336 340 341 339 338 339 340 340 340 339 338 337 335 335 335 333 327 318 307 293 278 265 256
327 326 327 328 328 328 329 331 332 332 331 330 329 328 329 331 330 329 328 327 327 328 330 331 330 329 329 330 332 334 335 335 336 336 336 336 335 332 329 326 324 323 322 321 318 317 316 314 311 308 308 309 309 307 309 314 321 326 328 329 328 326 324 332 341 347 346 346 347 349 350 349 347 346 346 348 350 353 353 349 341 327 305 282 266 256
327 327 328 330 331 331 332 332 332 332 331 329 329 329 331 333 333 331 330 328 328 329 331 333 334 333 331 329 330 331 333 335 338 339 339 338 337 334 332 331 331 331 331 329 325 322 320 318 315 314 314 314 312 311 312 317 322 327 331 335 333 327 323 330 339 346 348 350 353 356 357 356 354 354 356 1 6 9 9 7 3 356 337 297 266 253
329 329 330 331 332 332 332 332 332 331 331 330 329 331 332 334 334 333 332 330 330 332 333 335 335 333 330 329 329 330 332 335 338 340 341 341 339 338 338 338 338 339 338 337 334 329 325 321 319 319 319 318 316 315 317 321 325 329 334 338 338 336 336 341 345 347 348 351 356 360 2 2 1 1 2 6 12 17 19 18 17 14 8 345 281 251
330 330 331 332 332 331 331 331 332 332 331 330 331 332 334 335 335 335 334 333 333 334 336 337 335 332 328 328 329 330 332 334 337 339 341 342 343 344 345 344 344 343 343 342 342 339 333 326 322 320 320 320 322 325 329 330 330 331 335 340 342 344 347 351 353 353 353 355 358 2 5 6 5 4 3 5 11 18 23 24 24 22 22 17 348 254
332 332 332 332 332 331 332 333 333 332 331 331 332 334 335 336 336 336 336 337 337 337 337 338 336 333 330 329 330 331 331 332 334 337 341 344 346 347 348 348 348 348 348 349 349 348 341 332 324 320 319 320 324 331 339 342 339 337 337 342 346 349 352 355 358 359 359 0 3 6 8 8 7 5 5 7 11 17 22 26 28 29 28 28 24 266
333 333 333 333 333 332 332 333 333 332 332 333 334 335 336 337 337 337 337 338 339 338 337 337 335 333 332 331 332 332 332 332 333 337 341 344 347 348 349 350 350 351 352 355 358 358 354 343 330 323 323 325 329 335 342 347 347 345 345 348 351 353 355 358 0 2 3 5 8 11 11 10 7 5 5 7 9 13 18 24 29 33 34 35 38 102
335 334 334 334 333 333 333 333 334 333 333 334 335 336 337 339 340 339 338 339 340 339 337 336 335 333 332 332 333 334 334 334 336 339 342 346 348 350 350 351 351 352 354 358 3 7 10 5 351 337 337 340 341 343 345 349 351 353 356 357 358 358 358 360 2 4 5 8 11 14 15 14 12 10 9 6 6 9 14 20 26 32 36 39 44 77
337 337 336 335 333 333 333 334 334 334 334 335 335 335 337 339 341 342 342 341 341 340 338 337 335 334 332 332 333 335 336 337 339 341 344 348 350 351 351 351 352 352 354 358 3 9 15 20 21 15 6 0 355 350 347 350 355 360 3 4 4 4 2 3 4 5 7 9 12 15 17 17 18 17 15 10 8 8 11 16 21 27 34 39 45 55
339 339 338 336 335 334 334 334 334 335 335 335 335 336 337 339 342 343 344 343 342 341 340 339 337 334 332 332 333 335 337 339 340 342 346 350 352 352 352 352 353 353 353 355 358 1 5 8 11 17 23 19 10 2 354 354 357 0 3 6 9 9 7 6 6 7 9 11 14 16 18 20 21 22 20 15 11 8 8 10 14 20 29 36 42 49
Height
1379 1377 1375 1375 1373 1371 1368 1368 1368 1366 1363 1362 1361 1360 1359 1358 1356 1355 1354 1353 1351 1350 1348 1347 1345 1344 1342 1341 1340 1339 1337 1336 1335 1333 1332 1331 1329 1327 1326 1324 1323 1321 1320 1319 1317 1316 1315 1314 1312 1311 1310 1309 1308 1307 1306 1305 1304 1304 1303 1302 1301 1300 1298 1297 1297 1296 1296 1295 1295 1295 1294 1294 1294 1294 1294 1294 1293 1292 1292 1292 1292 1292 1292 1292 1292 1292
1377 1375 1374 1373 1372 1370 1367 1366 1366 1365 1362 1360 1358 1357 1357 1355 1353 1352 1351 1350 1349 1347 1346 1344 1342 1341 1339 1338 1337 1335 1334 1332 1331 1330 1328 1327 1326 1324 1322 1321 1320 1318 1317 1316 1314 1313 1312 1310 1309 1308 1307 1306 1305 1304 1303 1302 1301 1300 1299 1298 1297 1296 1295 1294 1294 1293 1292 1292 1291 1291 1291 1290 1290 1290 1290 1289 1289 1288 1288 1288 1288 1288 1288 1288 1289 1289
1376 1373 1372 1371 1371 1369 1366 1363 1362 1362 1361 1358 1356 1355 1354 1352 1351 1349 1348 1347 1346 1345 1343 1342 1340 1338 1336 1334 1332 1331 1330 1329 1328 1327 1325 1324 1322 1321 1319 1318 1317 1315 1314 1312 1311 1310 1308 1307 1306 1305 1304 1302 1302 1301 1300 1299 1297 1297 1296 1295 1294 1294 1293 1292 1292 1290 1289 1289 1288 1288 1287 1287 1287 1287 1286 1286 1286 1285 1285 1284 1284 1284 1285 1285 1285 1285
1376 1373 1370 1369 1368 1367 1365 1362 1360 1359 1358 1356 1354 1352 1352 1350 1348 1347 1346 1345 1343 1341 1340 1338 1336 1334 1332 1330 1329 1327 1327 1326 1324 1323 1322 1321 1319 1318 1316 1315 1313 1312 1310 1309 1307 1306 1305 1304 1302 1302 1301 1300 1299 1297 1297 1295 1294 1293 1293 1292 1291 1291 1290 1289 1288 1287 1287 1286 1286 1285 1284 1284 1283 1283 1282 1282 1282 1282 1281 1281 1281 1281 1281 1281 1282 1282
1375 1373 1370 1368 1366 1363 1362 1360 1358 1357 1355 1353 1352 1350 1349 1348 1346 1344 1343 1342 1340 1338 1336 1335 1333 1332 1330 1328 1326 1325 1324 1323 1322 1320 1319 1317 1316 1314 1313 1312 1310 1308 1307 1305 1304 1303 1302 1301 1300 1298 1297 1297 1295 1294 1293 1292 1291 1291 1290 1289 1288 1287 1287 1286 1285 1284 1283 1282 1282 1282 1281 1280 1280 1279 1279 1278 1278 1278 1278 1277 1277 1277 1277 1277 1278 1278
1373 1372 1369 1367 1364 1361 1359 1357 1356 1355 1352 1351 1349 1348 1347 1345 1344 1342 1340 1338 1337 1335 1334 1332 1331 1329 1328 1326 1324 1322 1321 1320 1318 1317 1315 1314 1312 1311 1309 1308 1306 1305 1303 1302 1301 1300 1299 1297 1297 1296 1294 1293 1292 1291 1289 1289 1288 1287 1287 1286 1285 1284 1283 1282 1281 1280 1279 1279 1278 1278 1277 1277 1276 1276 1275 1275 1275 1274 1274 1274 1274 1273 1273 1274 1274 1274
1370 1369 1368 1365 1362 1359 1357 1356 1354 1353 1351 1349 1347 1346 1345 1343 1342 1340 1338 1336 1335 1333 1331 1330 1328 1327 1325 1324 1322 1320 1318 1316 1315 1313 1312 1310 1308 1307 1306 1304 1303 1302 1301 1299 1298 1297 1296 1295 1294 1292 1291 1289 1288 1287 1286 1286 1285 1284 1283 1282 1281 1280 1279 1278 1277 1276 1276 1275 1274 1274 1273 1273 1272 1272 1272 1271 1271 1270 1270 1270 1270 1270 1270 1270 1270 1270
1368 1366 1365 1363 1360 1357 1355 1353 1352 1352 1350 1348 1346 1344 1342 1340 1339 1337 1336 1335 1333 1332 1329 1327 1325 1324 1322 1321 1319 1317 1315 1312 1311 1309 1307 1306 1305 1304 1302 1301 1300 1299 1298 1297 1295 1294 1293 1292 1290 1289 1287 1286 1285 1284 1283 1282 1282 1280 1279 1278 1277 1276 1275 1274 1273 1272 1272 1271 1271 1270 1269 1269 1268 1268 1267 1267 1267 1267 1266 1266 1266 1266 1266 1266 1265 1265
1367 1364 1361 1360 1359 1356 1353 1351 1351 1351 1349 1347 1345 1342 1339 1337 1335 1334 1333 1332 1331 1330 1328 1325 1322 1320 1318 1317 1316 1314 1312 1310 1308 1306 1305 1303 1302 1301 1300 1298 1297 1296 1295 1293 1292 1291 1290 1288 1287 1286 1284 1283 1282 1281 1280 1279 1278 1277 1275 1274 1272 1272 1271 1270 1269 1268 1268 1267 1267 1266 1266 1265 1265 1264 1264 1263 1263 1263 1262 1262 1262 1262 1262 1262 1261 1261
1366 1363 1360 1357 1357 1355 1353 1350 1349 1348 1347 1346 1344 1342 1340 1337 1334 1331 1329 1328 1327 1327 1326 1323 1320 1317 1314 1313 1312 1311 1309 1307 1305 1304 1303 1301 1300 1298 1297 1296 1294 1293 1292 1290 1289 1288 1287 1286 1284 1283 1282 1281 1279 1278 1277 1275 1273 1272 1271 1269 1268 1267 1267 1266 1265 1265 1264 1263 1263 1262 1262 1261 1261 1260 1260 1259 1259 1259 1258 1258 1258 1258 1258 1258 1257 1258
1363 1361 1358 1356 1355 1353 1352 1350 1347 1346 1345 1344 1342 1340 1339 1338 1335 1331 1327 1324 1323 1322 1322 1320 1318 1315 1312 1310 1308 1307 1306 1304 1302 1300 1299 1298 1297 1295 1294 1293 1291 1290 1288 1287 1286 1285 1284 1282 1281 1280 1278 1277 1275 1274 1272 1271 1269 1268 1267 1266 1265 1264 1263 1262 1262 1261 1261 1260 1259 1259 1258 1258 1257 1257 1256 1256 1256 1255 1255 1255 1254 1254 1254 1253 1253 1254
1361 1359 1357 1355 1353 1352 1350 1348 1347 1345 1344 1343 1340 1338 1336 1336 1334 1332 1328 1323 1321 1319 1318 1316 1315 1313 1312 1309 1307 1304 1303 1301 1299 1297 1295 1294 1293 1292 1290 1289 1288 1287 1285 1284 1282 1281 1280 1279 1277 1276 1274 1272 1271 1270 1268 1267 1266 1264 1263 1262 1261 1260 1259 1259 1258 1258 1257 1257 1256 1256 1255 1255 1254 1253 1253 1253 1252 1252 1251 1251 1250 1250 1250 1250 1250 1250
1359 1358 1356 1353 1352 1350 1349 1347 1345 1344 1343 1342 1340 1337 1334 1332 1331 1330 1327 1323 1320 1317 1316 1313 1311 1310 1309 1308 1305 1303 1300 1298 1296 1294 1293 1291 1290 1289 1287 1286 1284 1283 1282 1280 1278 1277 1276 1275 1273 1272 1270 1269 1267 1266 1265 1263 1262 1261 1260 1259 1257 1257 1256 1255 1255 1255 1254 1253 1253 1252 1252 1251 1251 1250 1249 1249 1248 1248 1247 1247 1246 1246 1246 1246 1247 1247
1358 1356 1354 1352 1351 1349 1348 1347 1345 1343 1341 1340 1338 1336 1333 1330 1328 1327 1324 1321 1318 1316 1314 1312 1309 1307 1306 1305 1303 1302 1299 1297 1294 1292 1291 1290 1289 1287 1286 1283 1282 1280 1279 1277 1275 1273 1272 1272 1269 1267 1266 1265 1264 1262 1261 1260 1258 1257 1256 1255 1254 1254 1253 1252 1252 1252 1251 1251 1250 1249 1249 1248 1247 1246 1246 1245 1245 1244 1244 1243 1243 1243 1243 1243 1243 1244
1357 1355 1353 1351 1350 1348 1347 1346 1344 1341 1339 1337 1336 1333 1331 1328 1326 1324 1322 1319 1316 1314 1313 1310 1307 1304 1302 1302 1301 1300 1298 1296 1293 1291 1289 1287 1286 1286 1284 1282 1279 1277 1276 1274 1272 1270 1269 1268 1266 1264 1262 1261 1260 1259 1257 1257 1255 1254 1253 1252 1252 1251 1250 1250 1249 1248 1248 1248 1247 1247 1246 1245 1244 1243 1242 1242 1242 1241 1241 1240 1240 1239 1239 1240 1240 1240
1356 1355 1352 1350 1348 1347 1346 1344 1342 1340 1337 1335 1333 1332 1329 1326 1324 1322 1320 1317 1315 1313 1311 1308 1305 1301 1298 1298 1298 1298 1297 1294 1291 1289 1287 1284 1283 1282 1282 1279 1276 1274 1272 1271 1270 1268 1266 1265 1263 1262 1260 1258 1257 1256 1255 1254 1253 1252 1251 1250 1249 1248 1247 1247 1246 1245 1245 1244 1243 1243 1242 1241 1240 1239 1239 1238 1238 1238 1237 1237 1237 1237 1236 1237 1237 1237
1356 1354 1352 1350 1347 1345 1343 1342 1341 1338 1335 1333 1331 1329 1327 1324 1322 1320 1318 1316 1314 1312 1310 1307 1304 1300 1296 1293 1294 1295 1295 1293 1289 1287 1284 1282 1280 1279 1279 1277 1274 1271 1270 1269 1267 1265 1263 1262 1260 1258 1257 1255 1254 1253 1252 1252 1251 1250 1248 1247 1247 1246 1245 1244 1243 1242 1241 1240 1239 1238 1237 1237 1236 1236 1236 1235 1235 1235 1234 1234 1234 1233 1233 1233 1233 1233
1355 1353 1351 1348 1346 1343 1341 1340 1338 1336 1334 1331 1329 1326 1324 1322 1321 1319 1317 1315 1313 1311 1308 1306 1303 1300 1296 1292 1291 1292 1293 1292 1288 1285 1282 1279 1277 1276 1276 1274 1272 1270 1267 1266 1264 1262 1261 1259 1257 1256 1254 1253 1252 1252 1250 1249 1248 1247 1246 1245 1244 1243 1242 1241 1240 1239 1237 1237 1236 1235 1234 1234 1233 1233 1232 1232 1232 1232 1231 1231 1231 1230 1230 1230 1230 1230
1352 1351 1349 1347 1344 1342 1339 1338 1336 1334 1332 1329 1326 1324 1322 1321 1319 1318 1316 1314 1312 1310 1307 1304 1301 1298 1296 1292 1290 1289 1291 1290 1287 1283 1280 1276 1273 1272 1272 1272 1270 1267 1265 1262 1261 1259 1258 1256 1254 1253 1252 1251 1250 1249 1247 1246 1245 1244 1243 1242 1241 1240 1239 1238 1237 1236 1235 1233 1232 1232 1231 1231 1230 1230 1229 1229 1229 1228 1228 1228 1227 1227 1227 1227 1227 1227
1350 1348 1347 1345 1342 1340 1337 1336 1334 1332 1330 1327 1325 1323 1321 1319 1317 1316 1314 1312 1310 1307 1305 1303 1300 1297 1294 1292 1289 1287 1288 1287 1285 1281 1277 1274 1271 1270 1270 1270 1267 1264 1262 1259 1258 1257 1255 1253 1252 1250 1249 1248 1247 1246 1244 1243 1242 1241 1240 1239 1238 1237 1236 1235 1234 1233 1232 1231 1230 1229 1228 1227 1227 1227 1226 1226 1225 1225 1225 1224 1224 1224 1223 1223 1223 1223
1348 1346 1344 1343 1342 1338 1335 1333 1331 1330 1328 1327 1325 1322 1320 1317 1315 1313 1312 1310 1307 1305 1303 1301 1298 1295 1293 1290 1287 1286 1286 1285 1283 1279 1275 1272 1269 1268 1268 1267 1265 1262 1259 1257 1255 1254 1253 1251 1249 1247 1246 1245 1244 1243 1242 1241 1240 1238 1237 1236 1235 1234 1233 1232 1231 1230 1229 1228 1227 1226 1225 1224 1224 1223 1223 1222 1222 1222 1221 1221 1221 1220 1220 1220 1219 1219
1347 1343 1342 1341 1339 1337 1334 1331 1329 1329 1328 1326 1324 1321 1318 1316 1314 1311 1309 1307 1306 1303 1301 1299 1296 1293 1291 1288 1286 1284 1284 1283 1281 1278 1274 1270 1266 1265 1265 1265 1263 1259 1256 1253 1252 1251 1250 1248 1247 1245 1243 1242 1242 1240 1239 1238 1237 1235 1234 1233 1232 1231 1230 1228 1227 1227 1226 1225 1224 1223 1222 1221 1221 1220 1219 1219 1219 1218 1218 1217 1217 1217 1217 1216 1216 1216
1345 1342 1340 1338 1337 1335 1333 1331 1329 1328 1327 1325 1323 1320 1318 1316 1313 1310 1308 1306 1304 1302 1299 1296 1293 1291 1289 1287 1284 1282 1282 1281 1280 1277 1274 1269 1265 1262 1262 1262 1260 1257 1254 1252 1250 1249 1247 1246 1244 1242 1241 1240 1238 1237 1236 1235 1233 1232 1231 1230 1228 1227 1226 1225 1224 1223 1222 1221 1220 1219 1219 1218 1217 1217 1216 1216 1215 1215 1214 1214 1214 1213 1213 1213 1212 1212
1343 1341 1338 1337 1336 1334 1333 1331 1328 1326 1325 1323 1321 1319 1317 1315 1312 1310 1307 1305 1302 1300 1297 1294 1291 1288 1286 1285 1283 1281 1280 1280 1278 1276 1273 1268 1263 1261 1260 1260 1258 1255 1251 1250 1249 1247 1245 1243 1241 1239 1238 1237 1235 1234 1233 1231 1230 1229 1228 1227 1225 1224 1223 1222 1221 1220 1219 1218 1217 1216 1215 1215 1214 1213 1213 1212 1212 1211 1211 1211 1210 1210 1209 1209 1209 1208
1342 1340 1338 1337 1335 1333 1332 1329 1327 1325 1323 1321 1319 1317 1314 1312 1310 1308 1305 1303 1301 1298 1295 1292 1289 1286 1284 1282 1281 1279 1278 1278 1277 1275 1272 1267 1262 1259 1258 1258 1256 1253 1249 1247 1246 1245 1243 1240 1238 1236 1235 1233 1232 1231 1229 1228 1227 1226 1224 1223 1222 1221 1220 1219 1218 1217 1215 1214 1213 1212 1212 1211 1210 1210 1209 1209 1208 1207 1207 1207 1207 1206 1206 1205 1205 1204
1340 1339 1337 1335 1333 1331 1329 1327 1325 1323 1322 1320 1317 1315 1312 1310 1308 1305 1303 1301 1299 1297 1294 1291 1287 1284 1282 1281 1279 1277 1276 1276 1275 1273 1271 1267 1262 1257 1256 1256 1255 1252 1247 1245 1243 1242 1241 1237 1235 1233 1232 1230 1228 1227 1226 1225 1224 1222 1221 1220 1219 1218 1217 1216 1214 1213 1212 1211 1210 1209 1208 1207 1207 1206 1205 1205 1204 1204 1203 1203 1202 1202 1202 1202 1201 1200
1338 1336 1334 1332 1330 1328 1326 1324 1322 1321 1319 1317 1316 1314 1312 1309 1307 1304 1302 1300 1298 1296 1293 1290 1286 1283 1281 1279 1277 1275 1274 1273 1272 1271 1269 1266 1261 1257 1254 1254 1253 1250 1246 1243 1241 1240 1238 1235 1232 1230 1229 1227 1225 1224 1222 1221 1220 1219 1218 1217 1216 1215 1214 1213 1212 1210 1209 1208 1207 1206 1205 1204 1203 1202 1201 1201 1200 1200 1199 1199 1198 1198 1198 1198 1197 1196
1335 1333 1331 1329 1327 1325 1323 1322 1320 1318 1316 1315 1313 1312 1310 1308 1306 1303 1300 1298 1297 1295 1292 1289 1286 1282 1279 1277 1275 1273 1272 1271 1270 1269 1267 1265 1261 1256 1253 1252 1251 1249 1245 1241 1238 1237 1236 1233 1230 1228 1226 1224 1222 1221 1220 1219 1217 1217 1216 1214 1213 1212 1211 1209 1208 1207 1206 1204 1203 1202 1201 1200 1199 1198 1197 1197 1196 1196 1195 1195 1195 1195 1195 1194 1193 1192
1332 1330 1328 1326 1324 1322 1320 1318 1317 1315 1313 1312 1311 1310 1308 1307 1305 1302 1299 1297 1295 1293 1290 1288 1286 1282 1279 1276 1273 1271 1270 1269 1269 1267 1266 1263 1259 1255 1253 1252 1250 1247 1245 1240 1236 1232 1232 1230 1228 1226 1224 1222 1221 1219 1218 1217 1215 1214 1212 1211 1209 1208 1207 1205 1204 1203 1202 1200 1199 1198 1197 1196 1195 1194 1193 1192 1192 1192 1191 1191 1191 1191 1191 1190 1189 1188
1329 1327 1325 1323 1321 1319 1317 1316 1314 1312 1311 1310 1308 1307 1306 1304 1302 1300 1297 1296 1294 1292 1289 1287 1284 1282 1279 1276 1272 1269 1267 1267 1267 1267 1265 1262 1257 1253 1252 1250 1248 1246 1244 1240 1235 1229 1227 1226 1226 1225 1223 1221 1219 1217 1216 1214 1212 1211 1209 1207 1205 1204 1202 1202 1200 1199 1198 1197 1195 1194 1193 1192 1191 1190 1189 1188 1187 1187 1187 1187 1187 1187 1186 1185 1184 1183
1326 1324 1322 1320 1318 1317 1315 1313 1312 1310 1309 1307 1306 1305 1303 1302 1300 1298 1296 1295 1293 1291 1288 1286 1283 1281 1279 1276 1272 1268 1265 1264 1264 1265 1263 1260 1256 1252 1251 1249 1247 1245 1244 1242 1237 1231 1224 1221 1221 1222 1222 1219 1217 1215 1213 1212 1210 1208 1206 1204 1202 1201 1200 1199 1197 1196 1195 1193 1192 1190 1189 1187 1186 1185 1184 1183 1182 1182 1182 1182 1182 1182 1182 1181 1179 1178
1324 1322 1320 1318 1316 1315 1313 1312 1310 1308 1307 1305 1304 1302 1301 1300 1298 1297 1295 1293 1292 1289 1287 1284 1282 1280 1278 1276 1273 1269 1265 1262 1262 1262 1262 1259 1254 1251 1250 1248 1246 1243 1242 1242 1240 1235 1228 1221 1217 1217 1217 1216 1214 1212 1211 1210 1208 1207 1205 1202 1201 1199 1197 1196 1195 1193 1191 1189 1187 1186 1184 1183 1182 1181 1179 1179 1178 1177 1177 1177 1177 1177 1177 1176 1175 1173
1322 1321 1318 1317 1315 1313 1312 1310 1309 1307 1305 1304 1302 1301 1299 1298 1296 1295 1293 1291 1290 1288 1286 1283 1281 1278 1276 1273 1271 1268 1265 1262 1261 1261 1260 1258 1254 1250 1248 1247 1244 1242 1240 1239 1238 1235 1231 1225 1219 1215 1213 1212 1212 1211 1209 1208 1207 1205 1203 1201 1199 1196 1195 1193 1191 1189 1187 1185 1183 1182 1180 1179 1178 1177 1175 1174 1174 1173 1172 1172 1172 1173 1173 1172 1171 1170
1321 1319 1317 1315 1314 1312 1311 1309 1307 1306 1304 1302 1301 1299 1297 1296 1294 1292 1291 1289 1288 1286 1284 1282 1280 1277 1274 1272 1268 1266 1263 1261 1260 1259 1258 1257 1253 1250 1247 1245 1243 1241 1238 1236 1235 1232 1230 1226 1221 1217 1213 1210 1209 1208 1208 1206 1205 1203 1201 1199 1197 1194 1192 1190 1188 1186 1184 1182 1180 1178 1176 1175 1174 1172 1172 1170 1169 1169 1168 1168 1168 1168 1168 1168 1167 1166
1319 1317 1316 1314 1312 1311 1309 1307 1306 1304 1302 1301 1299 1297 1296 1294 1292 1291 1289 1287 1286 1284 1282 1281 1279 1277 1274 1271 1268 1264 1261 1259 1258 1258 1257 1255 1252 1249 1246 1244 1242 1240 1237 1235 1232 1230 1227 1224 1221 1218 1214 1210 1207 1205 1205 1205 1203 1201 1199 1197 1195 1192 1189 1187 1185 1183 1181 1179 1177 1175 1173 1171 1170 1169 1167 1167 1166 1165 1164 1164 1164 1164 1164 1164 1163 1163
1318 1317 1315 1313 1311 1309 1307 1306 1304 1302 1301 1299 1297 1296 1294 1292 1290 1288 1287 1285 1283 1282 1280 1278 1277 1275 1273 1271 1268 1264 1260 1258 1256 1256 1255 1253 1251 1248 1246 1243 1241 1239 1237 1234 1231 1229 1226 1222 1219 1217 1215 1211 1207 1203 1202 1202 1201 1199 1196 1194 1192 1189 1187 1185 1183 1181 1178 1176 1174 1172 1170 1168 1167 1165 1164 1163 1162 1162 1161 1160 1160 1159 1159 1159 1159 1159
1318 1316 1314 1312 1310 1308 1307 1304 1302 1301 1299 1297 1295 1294 1292 1290 1288 1286 1285 1283 1281 1279 1277 1276 1274 1272 1270 1268 1266 1263 1260 1257 1255 1254 1252 1251 1250 1248 1245 1242 1239 1238 1237 1233 1231 1228 1225 1222 1218 1216 1214 1212 1208 1204 1201 1198 1197 1195 1193 1191 1189 1187 1184 1182 1180 1178 1176 1173 1171 1169 1167 1166 1164 1162 1161 1160 1159 1158 1157 1157 1156 1156 1155 1155 1155 1155
1317 1315 1313 1311 1309 1307 1306 1303 1302 1300 1298 1296 1294 1292 1290 1288 1286 1284 1282 1281 1278 1277 1275 1273 1271 1269 1267 1266 1263 1261 1258 1256 1254 1252 1251 1249 1248 1246 1243 1240 1238 1236 1235 1233 1231 1228 1225 1222 1219 1215 1212 1210 1207 1205 1202 1198 1195 1192 1190 1188 1186 1184 1182 1180 1178 1176 1174 1171 1169 1167 1165 1163 1161 1160 1158 1156 1155 1154 1153 1152 1152 1152 1151 1151 1151 1151
1317 1314 1312 1310 1308 1307 1305 1303 1301 1299 1297 1295 1293 1291 1289 1287 1285 1282 1281 1279 1277 1275 1273 1271 1269 1267 1264 1262 1261 1259 1257 1255 1252 1251 1249 1247 1246 1244 1242 1239 1237 1234 1233 1232 1230 1228 1226 1223 1220 1217 1213 1209 1206 1202 1200 1198 1195 1192 1188 1185 1183 1181 1180 1178 1176 1174 1172 1169 1167 1165 1163 1161 1159 1157 1155 1154 1152 1151 1150 1148 1148 1148 1148 1147 1147 1147
1316 1314 1312 1310 1308 1306 1304 1302 1300 1298 1296 1293 1291 1289 1287 1285 1283 1281 1279 1277 1275 1273 1271 1269 1267 1265 1262 1261 1259 1257 1255 1253 1251 1249 1247 1246 1244 1242 1241 1238 1236 1233 1232 1230 1229 1227 1225 1222 1220 1217 1214 1210 1206 1202 1199 1196 1194 1191 1188 1185 1181 1178 1177 1176 1174 1172 1170 1167 1166 1163 1161 1159 1157 1155 1153 1152 1150 1149 1147 1146 1145 1145 1145 1144 1144 1144
1315 1313 1311 1309 1307 1305 1303 1301 1299 1297 1295 1292 1290 1288 1286 1284 1282 1279 1277 1275 1273 1272 1270 1267 1265 1263 1261 1259 1257 1255 1253 1251 1249 1247 1246 1244 1242 1241 1239 1237 1235 1233 1231 1229 1227 1226 1224 1221 1218 1215 1212 1209 1206 1202 1198 1195 1193 1191 1189 1186 1182 1178 1175 1173 1172 1170 1168 1166 1164 1162 1160 1158 1156 1154 1152 1150 1148 1147 1146 1144 1143 1142 1142 1142 1142 1141
1315 1312 1310 1308 1306 1304 1302 1300 1297 1296 1293 1292 1289 1287 1285 1283 1281 1279 1276 1274 1272 1270 1268 1266 1264 1261 1258 1256 1254 1252 1251 1249 1248 1246 1244 1242 1241 1239 1238 1236 1234 1232 1230 1228 1226 1223 1221 1219 1217 1214 1211 1208 1205 1202 1197 1194 1192 1191 1189 1186 1182 1178 1174 1172 1171 1170 1167 1165 1163 1161 1159 1157 1155 1152 1151 1149 1147 1145 1144 1143 1142 1141 1140 1140 1139 1139
1314 1312 1309 1307 1305 1303 1301 1298 1296 1294 1292 1290 1288 1287 1285 1283 1281 1278 1276 1274 1271 1269 1267 1265 1262 1260 1257 1253 1251 1250 1249 1248 1246 1245 1243 1241 1240 1238 1237 1235 1233 1231 1229 1227 1223 1221 1218 1217 1215 1212 1209 1207 1205 1202 1197 1194 1192 1190 1188 1186 1183 1180 1176 1172 1170 1168 1167 1164 1162 1160 1158 1156 1154 1152 1150 1148 1146 1144 1143 1142 1141 1140 1139 1138 1138 1137
1313 1311 1308 1306 1304 1302 1300 1298 1296 1294 1292 1290 1287 1286 1284 1282 1280 1278 1276 1273 1271 1268 1266 1264 1261 1259 1256 1253 1251 1248 1247 1246 1244 1243 1242 1240 1239 1237 1236 1233 1231 1229 1227 1225 1222 1219 1217 1214 1212 1210 1208 1207 1204 1201 1198 1195 1192 1189 1187 1185 1183 1181 1178 1174 1171 1168 1166 1164 1162 1160 1158 1156 1153 1151 1149 1147 1145 1144 1142 1141 1140 1139 1138 1137 1137 1136
1312 1310 1308 1306 1303 1301 1299 1297 1295 1293 1291 1289 1287 1285 1283 1281 1279 1277 1275 1273 1270 1267 1266 1263 1261 1258 1256 1253 1250 1248 1246 1244 1242 1241 1240 1239 1237 1236 1234 1232 1229 1227 1226 1224 1222 1219 1216 1213 1210 1208 1207 1205 1203 1201 1198 1195 1192 1189 1187 1184 1182 1180 1177 1174 1171 1169 1166 1164 1161 1159 1157 1155 1153 1151 1148 1146 1145 1143 1142 1140 1139 1138 1137 1136 1136 1135
1312 1309 1307 1305 1302 1301 1299 1297 1294 1292 1290 1288 1286 1284 1282 1280 1278 1277 1274 1272 1270 1267 1265 1263 1261 1259 1256 1253 1250 1247 1245 1242 1241 1239 1238 1237 1235 1234 1232 1230 1228 1226 1224 1222 1220 1218 1216 1213 1210 1208 1206 1204 1202 1200 1197 1195 1192 1189 1186 1183 1181 1179 1176 1173 1171 1169 1167 1164 1162 1159 1157 1155 1153 1151 1148 1146 1144 1142 1141 1139 1138 1137 1136 1135 1135 1134
1311 1308 1306 1304 1302 1300 1298 1296 1294 1292 1290 1287 1285 1283 1281 1279 1277 1275 1273 1271 1269 1267 1264 1262 1260 1258 1256 1253 1251 1248 1246 1243 1241 1239 1237 1235 1234 1232 1230 1228 1227 1225 1223 1221 1219 1217 1214 1212 1210 1208 1206 1204 1201 1199 1197 1194 1192 1189 1187 1184 1181 1178 1176 1173 1171 1169 1167 1165 1162 1160 1157 1155 1152 1150 1148 1146 1143 1142 1140 1138 1137 1136 1135 1134 1133 1133
1310 1308 1306 1303 1301 1299 1297 1295 1293 1291 1289 1287 1284 1282 1280 1279 1277 1275 1272 1270 1268 1266 1264 1262 1260 1258 1256 1253 1251 1249 1247 1244 1242 1239 1237 1235 1233 1231 1229 1227 1225 1223 1222 1220 1218 1216 1214 1212 1210 1208 1207 1204 1202 1199 1196 1194 1192 1190 1187 1184 1182 1179 1176 1174 1171 1169 1167 1165 1163 1160 1158 1156 1153 1151 1148 1146 1143 1141 1139 1137 1136 1135 1134 1133 1132 1132
1309 1307 1305 1303 1301 1299 1297 1294 1292 1291 1288 1286 1283 1281 1279 1277 1276 1274 1272 1270 1268 1266 1264 1262 1259 1257 1255 1252 1251 1249 1247 1245 1242 1240 1237 1235 1233 1230 1228 1226 1224 1222 1220 1218 1217 1215 1214 1212 1211 1209 1207 1205 1202 1199 1196 1194 1192 1190 1187 1185 1182 1179 1177 1174 1172 1170 1167 1165 1163 1161 1158 1156 1154 1152 1149 1146 1143 1141 1139 1137 1135 1134 1133 1132 1131 1131
1308 1307 1305 1303 1301 1299 1296 1294 1292 1290 1288 1285 1283 1281 1278 1276 1275 1273 1272 1270 1267 1266 1264 1262 1259 1257 1255 1252 1250 1248 1246 1244 1242 1239 1237 1235 1233 1231 1228 1226 1224 1221 1219 1217 1215 1214 1212 1211 1210 1209 1207 1205 1203 1201 1198 1195 1192 1190 1187 1185 1183 1180 1178 1175 1172 1170 1168 1166 1163 1161 1158 1156 1154 1151 1149 1146 1144 1141 1139 1137 1135 1133 1132 1131 1130 1129
1307 1306 1304 1302 1300 1298 1296 1294 1292 1290 1287 1285 1283 1281 1278 1276 1274 1272 1271 1269 1267 1265 1263 1261 1259 1257 1255 1253 1251 1248 1247 1244 1242 1240 1237 1236 1233 1231 1229 1227 1225 1222 1220 1217 1215 1213 1212 1210 1209 1207 1207 1206 1204 1202 1200 1197 1193 1190 1187 1185 1183 1181 1178 1176 1173 1171 1169 1166 1164 1162 1159 1157 1154 1152 1149 1147 1144 1142 1139 1137 1135 1133 1131 1130 1129 1128